Time,TemperatureF,DewpointF,PressureIn,WindDirection,WindDirectionDegrees,WindSpeedMPH,WindSpeedGustMPH,Humidity,HourlyPrecipIn,Conditions,Clouds,dailyrainin,SolarRadiationWatts/m^2,SoftwareType,DateUTC
2013-05-28 00:02:00,70.9,13.8,29.42,North,355,3.0,6.0,11,0.00,,,0.00,0.0,meteohub,2013-05-28 06:02:00,
2013-05-28 00:07:00,71.6,14.4,29.42,North,355,1.0,8.0,11,0.00,,,0.00,0.0,meteohub,2013-05-28 06:07:00,
2013-05-28 00:12:00,71.4,14.2,29.43,North,355,1.0,8.0,11,0.00,,,0.00,0.0,meteohub,2013-05-28 06:12:00,
2013-05-28 00:17:00,71.4,14.2,29.43,NW,318,3.0,7.0,11,0.00,,,0.00,0.0,meteohub,2013-05-28 06:17:00,
2013-05-28 00:22:00,70.9,13.8,29.42,NW,318,1.0,6.0,11,0.00,,,0.00,0.0,meteohub,2013-05-28 06:22:00,
2013-05-28 00:27:00,70.3,13.3,29.43,NW,320,2.0,6.0,11,0.00,,,0.00,0.0,meteohub,2013-05-28 06:27:00,
2013-05-28 00:32:00,70.0,15.1,29.42,NW,320,2.0,3.0,12,0.00,,,0.00,0.0,meteohub,2013-05-28 06:32:00,
2013-05-28 00:37:00,69.8,14.9,29.42,NW,326,0.0,3.0,12,0.00,,,0.00,0.0,meteohub,2013-05-28 06:37:00,
2013-05-28 00:42:00,70.0,15.1,29.42,NNW,327,3.0,3.0,12,0.00,,,0.00,0.0,meteohub,2013-05-28 06:42:00,
2013-05-28 00:47:00,70.0,15.1,29.42,North,5,1.0,4.0,12,0.00,,,0.00,0.0,meteohub,2013-05-28 06:47:00,
2013-05-28 00:52:00,69.4,14.5,29.42,North,5,1.0,5.0,12,0.00,,,0.00,0.0,meteohub,2013-05-28 06:52:00,
2013-05-28 00:57:00,68.9,14.2,29.41,NNE,25,4.0,5.0,12,0.00,,,0.00,0.0,meteohub,2013-05-28 06:57:00,
2013-05-28 01:02:00,68.5,13.8,29.41,NNE,25,2.0,5.0,12,0.00,,,0.00,0.0,meteohub,2013-05-28 07:02:00,
2013-05-28 01:07:00,67.8,15.1,29.41,NNE,25,2.0,5.0,13,0.00,,,0.00,0.0,meteohub,2013-05-28 07:07:00,
2013-05-28 01:12:00,67.3,16.5,29.41,NNE,25,1.0,5.0,14,0.00,,,0.00,0.0,meteohub,2013-05-28 07:12:00,
2013-05-28 01:17:00,66.7,16.0,29.41,NNE,25,1.0,4.0,14,0.00,,,0.00,0.0,meteohub,2013-05-28 07:17:00,
2013-05-28 01:22:00,66.6,15.8,29.41,NNE,25,2.0,3.0,14,0.00,,,0.00,0.0,meteohub,2013-05-28 07:22:00,
2013-05-28 01:27:00,66.6,15.8,29.41,NNE,25,1.0,3.0,14,0.00,,,0.00,0.0,meteohub,2013-05-28 07:27:00,
2013-05-28 01:32:00,66.7,14.4,29.41,NNE,25,2.0,3.0,13,0.00,,,0.00,0.0,meteohub,2013-05-28 07:32:00,
2013-05-28 01:37:00,67.1,14.5,29.40,NNE,25,2.0,3.0,13,0.00,,,0.00,0.0,meteohub,2013-05-28 07:37:00,
2013-05-28 01:42:00,66.7,16.0,29.40,NNE,25,3.0,3.0,14,0.00,,,0.00,0.0,meteohub,2013-05-28 07:42:00,
2013-05-28 01:47:00,66.4,15.8,29.40,NNE,25,3.0,3.0,14,0.00,,,0.00,0.0,meteohub,2013-05-28 07:47:00,
2013-05-28 01:52:00,66.4,14.0,29.40,NE,53,1.0,5.0,13,0.00,,,0.00,0.0,meteohub,2013-05-28 07:52:00,
2013-05-28 01:57:00,66.7,16.0,29.40,NE,53,1.0,5.0,14,0.00,,,0.00,0.0,meteohub,2013-05-28 07:57:00,
2013-05-28 02:02:00,66.0,17.1,29.40,NE,53,0.0,5.0,15,0.00,,,0.00,0.0,meteohub,2013-05-28 08:02:00,
2013-05-28 02:07:00,64.8,17.4,29.39,NE,53,0.0,3.0,16,0.00,,,0.00,0.0,meteohub,2013-05-28 08:07:00,
2013-05-28 02:12:00,64.2,17.1,29.39,NE,53,2.0,3.0,16,0.00,,,0.00,0.0,meteohub,2013-05-28 08:12:00,
2013-05-28 02:17:00,64.0,16.9,29.39,NE,53,2.0,2.0,16,0.00,,,0.00,0.0,meteohub,2013-05-28 08:17:00,
2013-05-28 02:22:00,64.0,16.9,29.39,NE,53,1.0,2.0,16,0.00,,,0.00,0.0,meteohub,2013-05-28 08:22:00,
2013-05-28 02:27:00,64.2,18.5,29.39,NE,53,2.0,3.0,17,0.00,,,0.00,0.0,meteohub,2013-05-28 08:27:00,
2013-05-28 02:32:00,63.3,17.8,29.39,NE,53,3.0,3.0,17,0.00,,,0.00,0.0,meteohub,2013-05-28 08:32:00,
2013-05-28 02:37:00,63.1,17.6,29.39,NE,54,3.0,3.0,17,0.00,,,0.00,0.0,meteohub,2013-05-28 08:37:00,
2013-05-28 02:42:00,62.8,17.2,29.39,NE,54,2.0,3.0,17,0.00,,,0.00,0.0,meteohub,2013-05-28 08:42:00,
2013-05-28 02:47:00,62.6,17.2,29.39,NE,55,2.0,4.0,17,0.00,,,0.00,0.0,meteohub,2013-05-28 08:47:00,
2013-05-28 02:52:00,62.4,17.1,29.39,NE,55,2.0,4.0,17,0.00,,,0.00,0.0,meteohub,2013-05-28 08:52:00,
2013-05-28 02:57:00,62.2,16.9,29.39,NE,55,2.0,4.0,17,0.00,,,0.00,0.0,meteohub,2013-05-28 08:57:00,
2013-05-28 03:02:00,61.9,16.5,29.39,NE,55,2.0,3.0,17,0.00,,,0.00,0.0,meteohub,2013-05-28 09:02:00,
2013-05-28 03:07:00,61.5,17.6,29.39,NE,55,2.0,3.0,18,0.00,,,0.00,0.0,meteohub,2013-05-28 09:07:00,
2013-05-28 03:12:00,61.3,18.7,29.39,NE,55,0.0,3.0,19,0.00,,,0.00,0.0,meteohub,2013-05-28 09:12:00,
2013-05-28 03:17:00,61.0,17.2,29.39,NE,55,0.0,3.0,18,0.00,,,0.00,0.0,meteohub,2013-05-28 09:17:00,
2013-05-28 03:22:00,60.6,16.9,29.38,NE,55,2.0,4.0,18,0.00,,,0.00,0.0,meteohub,2013-05-28 09:22:00,
2013-05-28 03:27:00,60.4,16.7,29.38,NE,56,1.0,4.0,18,0.00,,,0.00,0.0,meteohub,2013-05-28 09:27:00,
2013-05-28 03:32:00,60.4,16.7,29.39,NE,56,0.0,4.0,18,0.00,,,0.00,0.0,meteohub,2013-05-28 09:32:00,
2013-05-28 03:37:00,59.9,17.6,29.38,NE,56,0.0,4.0,19,0.00,,,0.00,0.0,meteohub,2013-05-28 09:37:00,
2013-05-28 03:42:00,59.4,17.1,29.39,NE,56,0.0,1.0,19,0.00,,,0.00,0.0,meteohub,2013-05-28 09:42:00,
2013-05-28 03:47:00,59.5,18.5,29.39,NE,56,0.0,2.0,20,0.00,,,0.00,0.0,meteohub,2013-05-28 09:47:00,
2013-05-28 03:52:00,59.4,17.1,29.39,NE,56,1.0,2.0,19,0.00,,,0.00,0.0,meteohub,2013-05-28 09:52:00,
2013-05-28 03:57:00,59.4,18.3,29.39,NE,56,0.0,3.0,20,0.00,,,0.00,0.0,meteohub,2013-05-28 09:57:00,
2013-05-28 04:02:00,59.0,18.0,29.39,NE,56,0.0,3.0,20,0.00,,,0.00,0.0,meteohub,2013-05-28 10:02:00,
2013-05-28 04:07:00,58.5,17.6,29.39,NE,56,0.0,3.0,20,0.00,,,0.00,0.0,meteohub,2013-05-28 10:07:00,
2013-05-28 04:12:00,57.9,18.1,29.39,NE,56,1.0,2.0,21,0.00,,,0.00,0.0,meteohub,2013-05-28 10:12:00,
2013-05-28 04:17:00,57.7,19.2,29.39,NE,56,0.0,3.0,22,0.00,,,0.00,0.0,meteohub,2013-05-28 10:17:00,
2013-05-28 04:22:00,57.6,19.0,29.39,NE,56,1.0,3.0,22,0.00,,,0.00,0.0,meteohub,2013-05-28 10:22:00,
2013-05-28 04:27:00,57.4,19.9,29.39,NE,56,0.0,3.0,23,0.00,,,0.00,0.0,meteohub,2013-05-28 10:27:00,
2013-05-28 04:32:00,56.8,19.4,29.39,NE,56,0.0,3.0,23,0.00,,,0.00,0.0,meteohub,2013-05-28 10:32:00,
2013-05-28 04:37:00,56.8,18.3,29.39,NE,56,0.0,3.0,22,0.00,,,0.00,0.0,meteohub,2013-05-28 10:37:00,
2013-05-28 04:42:00,57.0,18.5,29.39,NE,56,1.0,2.0,22,0.00,,,0.00,0.0,meteohub,2013-05-28 10:42:00,
2013-05-28 04:47:00,57.0,17.4,29.39,NE,56,2.0,2.0,21,0.00,,,0.00,0.0,meteohub,2013-05-28 10:47:00,
2013-05-28 04:52:00,57.0,17.4,29.39,ENE,59,3.0,3.0,21,0.00,,,0.00,0.0,meteohub,2013-05-28 10:52:00,
2013-05-28 04:57:00,57.0,17.4,29.39,ENE,59,2.0,4.0,21,0.00,,,0.00,0.0,meteohub,2013-05-28 10:57:00,
2013-05-28 05:02:00,57.0,17.4,29.39,ENE,60,3.0,4.0,21,0.00,,,0.00,0.0,meteohub,2013-05-28 11:02:00,
2013-05-28 05:07:00,56.8,18.3,29.40,ENE,60,0.0,4.0,22,0.00,,,0.00,0.0,meteohub,2013-05-28 11:07:00,
2013-05-28 05:12:00,56.8,17.2,29.40,ENE,60,1.0,4.0,21,0.00,,,0.00,0.0,meteohub,2013-05-28 11:12:00,
2013-05-28 05:17:00,56.8,17.2,29.40,ENE,60,0.0,4.0,21,0.00,,,0.00,0.0,meteohub,2013-05-28 11:17:00,
2013-05-28 05:22:00,56.7,17.2,29.40,ENE,60,1.0,3.0,21,0.00,,,0.00,0.0,meteohub,2013-05-28 11:22:00,
2013-05-28 05:27:00,56.3,19.0,29.40,ENE,60,0.0,3.0,23,0.00,,,0.00,0.0,meteohub,2013-05-28 11:27:00,
2013-05-28 05:32:00,55.9,18.7,29.39,ENE,60,0.0,2.0,23,0.00,,,0.00,0.0,meteohub,2013-05-28 11:32:00,
2013-05-28 05:37:00,55.8,18.5,29.40,ENE,60,0.0,2.0,23,0.00,,,0.00,0.0,meteohub,2013-05-28 11:37:00,
2013-05-28 05:42:00,55.9,18.7,29.40,ENE,60,0.0,0.0,23,0.00,,,0.00,0.0,meteohub,2013-05-28 11:42:00,
2013-05-28 05:47:00,56.1,18.9,29.40,ENE,60,0.0,1.0,23,0.00,,,0.00,0.0,meteohub,2013-05-28 11:47:00,
2013-05-28 05:52:00,56.1,18.9,29.40,ENE,64,0.0,1.0,23,0.00,,,0.00,0.0,meteohub,2013-05-28 11:52:00,
2013-05-28 05:57:00,56.5,19.0,29.40,ENE,75,0.0,3.0,23,0.00,,,0.00,5.0,meteohub,2013-05-28 11:57:00,
2013-05-28 06:02:00,56.8,18.3,29.40,East,83,2.0,6.0,22,0.00,,,0.00,7.0,meteohub,2013-05-28 12:02:00,
2013-05-28 06:07:00,57.4,18.9,29.40,SE,146,4.0,6.0,22,0.00,,,0.00,9.0,meteohub,2013-05-28 12:07:00,
2013-05-28 06:12:00,57.9,18.1,29.40,SSE,155,1.0,6.0,21,0.00,,,0.00,11.0,meteohub,2013-05-28 12:12:00,
2013-05-28 06:17:00,58.3,17.4,29.40,SSE,155,2.0,6.0,20,0.00,,,0.00,14.0,meteohub,2013-05-28 12:17:00,
2013-05-28 06:22:00,58.3,17.4,29.40,SSE,155,0.0,5.0,20,0.00,,,0.00,16.0,meteohub,2013-05-28 12:22:00,
2013-05-28 06:27:00,57.9,17.1,29.40,SSE,155,1.0,5.0,20,0.00,,,0.00,18.0,meteohub,2013-05-28 12:27:00,
2013-05-28 06:32:00,57.6,19.0,29.40,SSE,155,0.0,3.0,22,0.00,,,0.00,19.0,meteohub,2013-05-28 12:32:00,
2013-05-28 06:37:00,57.0,19.6,29.40,SSE,155,0.0,3.0,23,0.00,,,0.00,21.0,meteohub,2013-05-28 12:37:00,
2013-05-28 06:42:00,56.8,18.3,29.40,SSE,155,1.0,4.0,22,0.00,,,0.00,23.0,meteohub,2013-05-28 12:42:00,
2013-05-28 06:47:00,57.4,18.9,29.40,SSE,156,2.0,4.0,22,0.00,,,0.00,104.0,meteohub,2013-05-28 12:47:00,
2013-05-28 06:52:00,57.7,19.2,29.40,SSE,156,0.0,4.0,22,0.00,,,0.00,121.0,meteohub,2013-05-28 12:52:00,
2013-05-28 06:57:00,58.1,19.4,29.41,SSE,156,0.0,4.0,22,0.00,,,0.00,141.0,meteohub,2013-05-28 12:57:00,
2013-05-28 07:02:00,58.6,18.9,29.41,SSE,156,0.0,4.0,21,0.00,,,0.00,158.0,meteohub,2013-05-28 13:02:00,
2013-05-28 07:07:00,59.4,19.4,29.41,SSE,155,3.0,3.0,21,0.00,,,0.00,174.0,meteohub,2013-05-28 13:07:00,
2013-05-28 07:12:00,59.9,21.0,29.41,SSE,155,1.0,4.0,22,0.00,,,0.00,190.0,meteohub,2013-05-28 13:12:00,
2013-05-28 07:17:00,60.4,21.4,29.41,SSE,155,1.0,4.0,22,0.00,,,0.00,206.0,meteohub,2013-05-28 13:17:00,
2013-05-28 07:22:00,61.2,20.8,29.41,SSE,156,1.0,4.0,21,0.00,,,0.00,223.0,meteohub,2013-05-28 13:22:00,
2013-05-28 07:27:00,62.1,21.7,29.41,SSE,156,0.0,4.0,21,0.00,,,0.00,239.0,meteohub,2013-05-28 13:27:00,
2013-05-28 07:32:00,62.4,21.9,29.41,SSE,157,1.0,4.0,21,0.00,,,0.00,258.0,meteohub,2013-05-28 13:32:00,
2013-05-28 07:37:00,63.1,22.6,29.41,SSE,157,0.0,5.0,21,0.00,,,0.00,272.0,meteohub,2013-05-28 13:37:00,
2013-05-28 07:42:00,63.7,20.7,29.41,SSE,157,1.0,5.0,19,0.00,,,0.00,290.0,meteohub,2013-05-28 13:42:00,
2013-05-28 07:47:00,64.0,19.6,29.41,SSE,158,3.0,5.0,18,0.00,,,0.00,308.0,meteohub,2013-05-28 13:47:00,
2013-05-28 07:52:00,64.6,18.9,29.42,SSE,159,2.0,4.0,17,0.00,,,0.00,327.0,meteohub,2013-05-28 13:52:00,
2013-05-28 07:57:00,64.8,16.0,29.41,SSE,159,2.0,4.0,15,0.00,,,0.00,345.0,meteohub,2013-05-28 13:57:00,
2013-05-28 08:02:00,64.9,19.0,29.41,SSE,160,3.0,4.0,17,0.00,,,0.00,364.0,meteohub,2013-05-28 14:02:00,
2013-05-28 08:07:00,65.3,16.5,29.41,SSE,164,2.0,4.0,15,0.00,,,0.00,381.0,meteohub,2013-05-28 14:07:00,
2013-05-28 08:12:00,65.7,18.3,29.41,SSE,168,3.0,5.0,16,0.00,,,0.00,392.0,meteohub,2013-05-28 14:12:00,
2013-05-28 08:17:00,65.8,16.9,29.41,South,169,0.0,5.0,15,0.00,,,0.00,404.0,meteohub,2013-05-28 14:17:00,
2013-05-28 08:22:00,66.0,17.1,29.41,South,169,0.0,5.0,15,0.00,,,0.00,420.0,meteohub,2013-05-28 14:22:00,
2013-05-28 08:27:00,66.6,17.4,29.41,South,171,0.0,5.0,15,0.00,,,0.00,438.0,meteohub,2013-05-28 14:27:00,
2013-05-28 08:32:00,66.7,17.6,29.41,South,171,3.0,5.0,15,0.00,,,0.00,462.0,meteohub,2013-05-28 14:32:00,
2013-05-28 08:37:00,66.9,17.8,29.41,South,173,1.0,5.0,15,0.00,,,0.00,480.0,meteohub,2013-05-28 14:37:00,
2013-05-28 08:42:00,66.9,20.7,29.41,SSW,213,3.0,7.0,17,0.00,,,0.00,497.0,meteohub,2013-05-28 14:42:00,
2013-05-28 08:47:00,67.3,19.6,29.41,SSW,201,3.0,7.0,16,0.00,,,0.00,512.0,meteohub,2013-05-28 14:47:00,
2013-05-28 08:52:00,67.5,19.8,29.41,SSW,201,4.0,7.0,16,0.00,,,0.00,526.0,meteohub,2013-05-28 14:52:00,
2013-05-28 08:57:00,67.6,19.8,29.40,South,179,3.0,6.0,16,0.00,,,0.00,543.0,meteohub,2013-05-28 14:57:00,
2013-05-28 09:02:00,68.4,17.2,29.40,SSE,158,2.0,6.0,14,0.00,,,0.00,561.0,meteohub,2013-05-28 15:02:00,
2013-05-28 09:07:00,68.5,17.4,29.40,SW,219,3.0,6.0,14,0.00,,,0.00,575.0,meteohub,2013-05-28 15:07:00,
2013-05-28 09:12:00,68.4,15.6,29.40,SSW,213,6.0,9.0,13,0.00,,,0.00,591.0,meteohub,2013-05-28 15:12:00,
2013-05-28 09:17:00,68.7,17.6,29.40,SSW,195,5.0,9.0,14,0.00,,,0.00,606.0,meteohub,2013-05-28 15:17:00,
2013-05-28 09:22:00,69.3,14.5,29.40,SW,216,2.0,9.0,12,0.00,,,0.00,621.0,meteohub,2013-05-28 15:22:00,
2013-05-28 09:27:00,68.7,15.8,29.40,West,267,4.0,8.0,13,0.00,,,0.00,633.0,meteohub,2013-05-28 15:27:00,
2013-05-28 09:32:00,69.3,16.3,29.40,SW,216,9.0,9.0,13,0.00,,,0.00,649.0,meteohub,2013-05-28 15:32:00,
2013-05-28 09:37:00,69.6,14.7,29.40,South,178,3.0,11.0,12,0.00,,,0.00,664.0,meteohub,2013-05-28 15:37:00,
2013-05-28 09:42:00,70.0,15.1,29.39,West,259,4.0,11.0,12,0.00,,,0.00,680.0,meteohub,2013-05-28 15:42:00,
2013-05-28 09:47:00,70.5,15.4,29.39,West,267,5.0,11.0,12,0.00,,,0.00,694.0,meteohub,2013-05-28 15:47:00,
2013-05-28 09:52:00,70.5,17.2,29.39,SSW,209,3.0,10.0,13,0.00,,,0.00,705.0,meteohub,2013-05-28 15:52:00,
2013-05-28 09:57:00,70.7,15.6,29.39,WSW,242,8.0,10.0,12,0.00,,,0.00,717.0,meteohub,2013-05-28 15:57:00,
2013-05-28 10:02:00,70.5,17.2,29.39,WSW,240,7.0,12.0,13,0.00,,,0.00,731.0,meteohub,2013-05-28 16:02:00,
2013-05-28 10:07:00,71.2,14.0,29.39,SSW,204,5.0,12.0,11,0.00,,,0.00,745.0,meteohub,2013-05-28 16:07:00,
2013-05-28 10:12:00,71.1,15.8,29.39,SW,230,6.0,14.0,12,0.00,,,0.00,758.0,meteohub,2013-05-28 16:12:00,
2013-05-28 10:17:00,71.1,15.8,29.39,SW,236,7.0,14.0,12,0.00,,,0.00,772.0,meteohub,2013-05-28 16:17:00,
2013-05-28 10:22:00,71.6,16.3,29.39,SSW,195,7.0,14.0,12,0.00,,,0.00,782.0,meteohub,2013-05-28 16:22:00,
2013-05-28 10:27:00,71.4,14.2,29.39,South,180,5.0,14.0,11,0.00,,,0.00,795.0,meteohub,2013-05-28 16:27:00,
2013-05-28 10:32:00,72.1,14.7,29.38,SSW,205,4.0,14.0,11,0.00,,,0.00,809.0,meteohub,2013-05-28 16:32:00,
2013-05-28 10:37:00,72.7,15.1,29.38,SW,236,6.0,11.0,11,0.00,,,0.00,817.0,meteohub,2013-05-28 16:37:00,
2013-05-28 10:42:00,73.0,15.4,29.38,SW,236,7.0,11.0,11,0.00,,,0.00,831.0,meteohub,2013-05-28 16:42:00,
2013-05-28 10:47:00,72.9,13.1,29.37,SSW,212,6.0,11.0,10,0.00,,,0.00,844.0,meteohub,2013-05-28 16:47:00,
2013-05-28 10:52:00,73.0,13.3,29.38,SW,215,7.0,12.0,10,0.00,,,0.00,846.0,meteohub,2013-05-28 16:52:00,
2013-05-28 10:57:00,73.0,10.9,29.37,SSW,213,5.0,12.0,9,0.00,,,0.00,863.0,meteohub,2013-05-28 16:57:00,
2013-05-28 11:02:00,73.6,11.3,29.37,SSW,197,2.0,11.0,9,0.00,,,0.00,872.0,meteohub,2013-05-28 17:02:00,
2013-05-28 11:07:00,73.6,13.6,29.37,South,191,1.0,9.0,10,0.00,,,0.00,881.0,meteohub,2013-05-28 17:07:00,
2013-05-28 11:12:00,73.9,11.5,29.37,South,183,4.0,13.0,9,0.00,,,0.00,896.0,meteohub,2013-05-28 17:12:00,
2013-05-28 11:17:00,74.8,12.2,29.37,SSW,211,9.0,13.0,9,0.00,,,0.00,907.0,meteohub,2013-05-28 17:17:00,
2013-05-28 11:22:00,74.8,12.2,29.37,SW,232,9.0,13.0,9,0.00,,,0.00,904.0,meteohub,2013-05-28 17:22:00,
2013-05-28 11:27:00,74.7,12.0,29.37,South,178,7.0,11.0,9,0.00,,,0.00,932.0,meteohub,2013-05-28 17:27:00,
2013-05-28 11:32:00,75.2,12.6,29.36,SW,231,5.0,12.0,9,0.00,,,0.00,932.0,meteohub,2013-05-28 17:32:00,
2013-05-28 11:37:00,75.4,12.6,29.37,WSW,248,8.0,12.0,9,0.00,,,0.00,926.0,meteohub,2013-05-28 17:37:00,
2013-05-28 11:42:00,75.4,10.0,29.36,SW,235,5.0,14.0,8,0.00,,,0.00,944.0,meteohub,2013-05-28 17:42:00,
2013-05-28 11:47:00,75.4,12.6,29.36,SSW,213,4.0,14.0,9,0.00,,,0.00,930.0,meteohub,2013-05-28 17:47:00,
2013-05-28 11:52:00,75.7,10.2,29.36,SSW,198,6.0,10.0,8,0.00,,,0.00,932.0,meteohub,2013-05-28 17:52:00,
2013-05-28 11:57:00,76.1,10.6,29.35,SW,227,9.0,9.0,8,0.00,,,0.00,939.0,meteohub,2013-05-28 17:57:00,
2013-05-28 12:02:00,76.3,7.7,29.35,WSW,249,5.0,10.0,7,0.00,,,0.00,946.0,meteohub,2013-05-28 18:02:00,
2013-05-28 12:07:00,76.6,7.9,29.35,SSE,166,3.0,10.0,7,0.00,,,0.00,981.0,meteohub,2013-05-28 18:07:00,
2013-05-28 12:12:00,76.8,4.6,29.35,South,186,6.0,10.0,6,0.00,,,0.00,947.0,meteohub,2013-05-28 18:12:00,
2013-05-28 12:17:00,76.3,4.3,29.34,South,181,3.0,10.0,6,0.00,,,0.00,969.0,meteohub,2013-05-28 18:17:00,
2013-05-28 12:22:00,77.2,1.0,29.34,SSW,196,2.0,11.0,5,0.00,,,0.00,995.0,meteohub,2013-05-28 18:22:00,
2013-05-28 12:27:00,78.3,9.1,29.34,WSW,243,6.0,15.0,7,0.00,,,0.00,993.0,meteohub,2013-05-28 18:27:00,
2013-05-28 12:32:00,77.4,1.0,29.34,WSW,249,7.0,15.0,5,0.00,,,0.00,960.0,meteohub,2013-05-28 18:32:00,
2013-05-28 12:37:00,77.2,5.0,29.33,South,186,8.0,15.0,6,0.00,,,0.00,951.0,meteohub,2013-05-28 18:37:00,
2013-05-28 12:42:00,77.4,1.0,29.33,SW,223,3.0,13.0,5,0.00,,,0.00,870.0,meteohub,2013-05-28 18:42:00,
2013-05-28 12:47:00,78.6,1.9,29.32,SSW,206,6.0,13.0,5,0.00,,,0.00,615.0,meteohub,2013-05-28 18:47:00,
2013-05-28 12:52:00,77.7,5.4,29.32,SSW,208,11.0,15.0,6,0.00,,,0.00,960.0,meteohub,2013-05-28 18:52:00,
2013-05-28 12:57:00,77.7,1.4,29.32,SSW,205,9.0,15.0,5,0.00,,,0.00,860.0,meteohub,2013-05-28 18:57:00,
2013-05-28 13:02:00,78.4,1.9,29.31,SW,232,10.0,16.0,5,0.00,,,0.00,932.0,meteohub,2013-05-28 19:02:00,
2013-05-28 13:07:00,78.6,-2.7,29.31,SSW,203,8.0,16.0,4,0.00,,,0.00,965.0,meteohub,2013-05-28 19:07:00,
2013-05-28 13:12:00,79.0,2.3,29.31,WSW,246,12.0,16.0,5,0.00,,,0.00,1004.0,meteohub,2013-05-28 19:12:00,
2013-05-28 13:17:00,80.1,7.0,29.31,SW,217,5.0,16.0,6,0.00,,,0.00,1069.0,meteohub,2013-05-28 19:17:00,
2013-05-28 13:22:00,79.3,2.5,29.31,SSW,193,8.0,16.0,5,0.00,,,0.00,1027.0,meteohub,2013-05-28 19:22:00,
2013-05-28 13:27:00,79.5,2.7,29.30,WSW,246,3.0,12.0,5,0.00,,,0.00,605.0,meteohub,2013-05-28 19:27:00,
2013-05-28 13:32:00,78.6,1.9,29.30,South,177,6.0,13.0,5,0.00,,,0.00,559.0,meteohub,2013-05-28 19:32:00,
2013-05-28 13:37:00,78.4,1.9,29.30,SSW,204,7.0,13.0,5,0.00,,,0.00,1083.0,meteohub,2013-05-28 19:37:00,
2013-05-28 13:42:00,79.0,6.3,29.30,SSW,194,6.0,13.0,6,0.00,,,0.00,995.0,meteohub,2013-05-28 19:42:00,
2013-05-28 13:47:00,79.9,2.8,29.29,SSE,156,7.0,15.0,5,0.00,,,0.00,861.0,meteohub,2013-05-28 19:47:00,
2013-05-28 13:52:00,79.5,2.7,29.29,SSW,199,5.0,15.0,5,0.00,,,0.00,1116.0,meteohub,2013-05-28 19:52:00,
2013-05-28 13:57:00,79.9,2.8,29.29,South,187,6.0,15.0,5,0.00,,,0.00,911.0,meteohub,2013-05-28 19:57:00,
2013-05-28 14:02:00,79.7,6.8,29.29,South,170,7.0,15.0,6,0.00,,,0.00,795.0,meteohub,2013-05-28 20:02:00,
2013-05-28 14:07:00,80.4,7.3,29.28,West,267,2.0,12.0,6,0.00,,,0.00,561.0,meteohub,2013-05-28 20:07:00,
2013-05-28 14:12:00,80.1,7.0,29.28,SW,216,3.0,10.0,6,0.00,,,0.00,984.0,meteohub,2013-05-28 20:12:00,
2013-05-28 14:17:00,80.2,3.2,29.28,SSE,153,3.0,14.0,5,0.00,,,0.00,513.0,meteohub,2013-05-28 20:17:00,
2013-05-28 14:22:00,79.7,2.8,29.28,South,178,6.0,14.0,5,0.00,,,0.00,380.0,meteohub,2013-05-28 20:22:00,
2013-05-28 14:27:00,79.2,6.4,29.27,South,188,9.0,14.0,6,0.00,,,0.00,490.0,meteohub,2013-05-28 20:27:00,
2013-05-28 14:32:00,79.3,6.4,29.27,SSW,212,8.0,14.0,6,0.00,,,0.00,541.0,meteohub,2013-05-28 20:32:00,
2013-05-28 14:37:00,79.3,6.4,29.27,South,177,9.0,10.0,6,0.00,,,0.00,464.0,meteohub,2013-05-28 20:37:00,
2013-05-28 14:42:00,79.0,6.3,29.27,South,175,2.0,13.0,6,0.00,,,0.00,462.0,meteohub,2013-05-28 20:42:00,
2013-05-28 14:47:00,79.2,2.5,29.27,SE,146,4.0,13.0,5,0.00,,,0.00,589.0,meteohub,2013-05-28 20:47:00,
2013-05-28 14:52:00,79.5,2.7,29.26,SSE,147,3.0,14.0,5,0.00,,,0.00,652.0,meteohub,2013-05-28 20:52:00,
2013-05-28 14:57:00,79.5,2.7,29.26,SSW,194,7.0,14.0,5,0.00,,,0.00,381.0,meteohub,2013-05-28 20:57:00,
2013-05-28 15:02:00,79.3,2.5,29.26,South,183,7.0,15.0,5,0.00,,,0.00,475.0,meteohub,2013-05-28 21:02:00,
2013-05-28 15:07:00,79.5,2.7,29.26,SSE,148,2.0,15.0,5,0.00,,,0.00,536.0,meteohub,2013-05-28 21:07:00,
2013-05-28 15:12:00,80.1,3.0,29.25,South,186,6.0,15.0,5,0.00,,,0.00,455.0,meteohub,2013-05-28 21:12:00,
2013-05-28 15:17:00,80.1,3.0,29.25,SSE,159,5.0,14.0,5,0.00,,,0.00,496.0,meteohub,2013-05-28 21:17:00,
2013-05-28 15:22:00,79.9,-1.8,29.25,SSW,209,12.0,15.0,4,0.00,,,0.00,612.0,meteohub,2013-05-28 21:22:00,
2013-05-28 15:27:00,79.7,-2.0,29.25,South,169,9.0,15.0,4,0.00,,,0.00,475.0,meteohub,2013-05-28 21:27:00,
2013-05-28 15:32:00,79.9,-1.8,29.25,SE,136,5.0,15.0,4,0.00,,,0.00,380.0,meteohub,2013-05-28 21:32:00,
2013-05-28 15:37:00,79.5,-2.0,29.25,SSE,164,7.0,15.0,4,0.00,,,0.00,364.0,meteohub,2013-05-28 21:37:00,
2013-05-28 15:42:00,79.2,-2.4,29.24,SSE,157,1.0,10.0,4,0.00,,,0.00,373.0,meteohub,2013-05-28 21:42:00,
2013-05-28 15:47:00,79.7,2.8,29.24,South,171,3.0,10.0,5,0.00,,,0.00,359.0,meteohub,2013-05-28 21:47:00,
2013-05-28 15:52:00,79.5,-2.0,29.23,SSE,163,4.0,9.0,4,0.00,,,0.00,359.0,meteohub,2013-05-28 21:52:00,
2013-05-28 15:57:00,79.3,-2.2,29.23,SSE,165,1.0,7.0,4,0.00,,,0.00,343.0,meteohub,2013-05-28 21:57:00,
2013-05-28 16:02:00,79.3,-2.2,29.23,SSW,194,0.0,8.0,4,0.00,,,0.00,334.0,meteohub,2013-05-28 22:02:00,
2013-05-28 16:07:00,79.9,-1.8,29.23,SSE,153,3.0,8.0,4,0.00,,,0.00,517.0,meteohub,2013-05-28 22:07:00,
2013-05-28 16:12:00,80.8,-1.3,29.22,ESE,122,3.0,8.0,4,0.00,,,0.00,383.0,meteohub,2013-05-28 22:12:00,
2013-05-28 16:17:00,80.8,-7.2,29.22,SE,142,1.0,7.0,3,0.00,,,0.00,316.0,meteohub,2013-05-28 22:17:00,
2013-05-28 16:22:00,80.6,-1.3,29.21,South,173,3.0,7.0,4,0.00,,,0.00,295.0,meteohub,2013-05-28 22:22:00,
2013-05-28 16:27:00,80.4,-7.4,29.21,SSW,199,1.0,10.0,3,0.00,,,0.00,313.0,meteohub,2013-05-28 22:27:00,
2013-05-28 16:32:00,80.4,-7.4,29.21,East,94,1.0,10.0,3,0.00,,,0.00,346.0,meteohub,2013-05-28 22:32:00,
2013-05-28 16:37:00,81.0,-7.1,29.21,East,80,0.0,10.0,3,0.00,,,0.00,339.0,meteohub,2013-05-28 22:37:00,
2013-05-28 16:42:00,81.0,-1.1,29.20,SE,143,2.0,6.0,4,0.00,,,0.00,376.0,meteohub,2013-05-28 22:42:00,
2013-05-28 16:47:00,81.0,-7.1,29.20,SSE,162,3.0,7.0,3,0.00,,,0.00,538.0,meteohub,2013-05-28 22:47:00,
2013-05-28 16:52:00,81.3,-0.9,29.20,South,173,1.0,8.0,4,0.00,,,0.00,782.0,meteohub,2013-05-28 22:52:00,
2013-05-28 16:57:00,82.0,-6.3,29.20,WSW,237,6.0,8.0,3,0.00,,,0.00,566.0,meteohub,2013-05-28 22:57:00,
2013-05-28 17:02:00,82.4,-6.2,29.20,SSW,201,2.0,10.0,3,0.00,,,0.00,396.0,meteohub,2013-05-28 23:02:00,
2013-05-28 17:07:00,83.1,-5.6,29.19,SE,136,5.0,10.0,3,0.00,,,0.00,489.0,meteohub,2013-05-28 23:07:00,
2013-05-28 17:12:00,82.9,-14.1,29.19,SSE,167,4.0,9.0,2,0.00,,,0.00,671.0,meteohub,2013-05-28 23:12:00,
2013-05-28 17:17:00,82.9,-5.8,29.19,South,181,4.0,10.0,3,0.00,,,0.00,388.0,meteohub,2013-05-28 23:17:00,
2013-05-28 17:22:00,83.1,-13.9,29.19,SE,128,1.0,10.0,2,0.00,,,0.00,517.0,meteohub,2013-05-28 23:22:00,
2013-05-28 17:27:00,83.5,-13.7,29.18,South,182,5.0,11.0,2,0.00,,,0.00,510.0,meteohub,2013-05-28 23:27:00,
2013-05-28 17:32:00,83.1,-13.9,29.18,SSW,194,0.0,11.0,2,0.00,,,0.00,362.0,meteohub,2013-05-28 23:32:00,
2013-05-28 17:37:00,83.8,-13.4,29.18,South,173,3.0,7.0,2,0.00,,,0.00,248.0,meteohub,2013-05-28 23:37:00,
2013-05-28 17:42:00,83.5,-13.7,29.18,SSW,193,5.0,9.0,2,0.00,,,0.00,193.0,meteohub,2013-05-28 23:42:00,
2013-05-28 17:47:00,82.8,-6.0,29.18,WSW,239,8.0,11.0,3,0.00,,,0.00,135.0,meteohub,2013-05-28 23:47:00,
2013-05-28 17:52:00,82.6,-14.3,29.18,WNW,300,3.0,11.0,2,0.00,,,0.00,176.0,meteohub,2013-05-28 23:52:00,
2013-05-28 17:57:00,82.4,-14.3,29.17,WSW,257,3.0,11.0,2,0.00,,,0.00,193.0,meteohub,2013-05-28 23:57:00,
2013-05-28 18:02:00,82.0,-14.6,29.17,WSW,248,3.0,11.0,2,0.00,,,0.00,137.0,meteohub,2013-05-29 00:02:00,
2013-05-28 18:07:00,81.7,-6.7,29.17,West,269,6.0,11.0,3,0.00,,,0.00,118.0,meteohub,2013-05-29 00:07:00,
2013-05-28 18:12:00,81.5,-15.0,29.17,West,267,0.0,7.0,2,0.00,,,0.00,102.0,meteohub,2013-05-29 00:12:00,
2013-05-28 18:17:00,81.3,-6.9,29.17,West,267,2.0,6.0,3,0.00,,,0.00,95.0,meteohub,2013-05-29 00:17:00,
2013-05-28 18:22:00,81.1,-7.1,29.17,West,267,0.0,6.0,3,0.00,,,0.00,113.0,meteohub,2013-05-29 00:22:00,
2013-05-28 18:27:00,81.0,-7.1,29.17,West,265,1.0,5.0,3,0.00,,,0.00,118.0,meteohub,2013-05-29 00:27:00,
2013-05-28 18:32:00,81.0,-15.3,29.17,WSW,256,4.0,5.0,2,0.00,,,0.00,121.0,meteohub,2013-05-29 00:32:00,
2013-05-28 18:37:00,81.0,-15.3,29.16,WNW,284,7.0,11.0,2,0.00,,,0.00,116.0,meteohub,2013-05-29 00:37:00,
2013-05-28 18:42:00,81.0,-7.1,29.16,West,273,3.0,11.0,3,0.00,,,0.00,93.0,meteohub,2013-05-29 00:42:00,
2013-05-28 18:47:00,80.8,-7.2,29.16,WNW,298,4.0,11.0,3,0.00,,,0.00,69.0,meteohub,2013-05-29 00:47:00,
2013-05-28 18:52:00,80.8,-7.2,29.16,WSW,248,4.0,10.0,3,0.00,,,0.00,58.0,meteohub,2013-05-29 00:52:00,
2013-05-28 18:57:00,80.4,-7.4,29.16,WNW,293,2.0,8.0,3,0.00,,,0.00,65.0,meteohub,2013-05-29 00:57:00,
2013-05-28 19:02:00,80.2,-7.6,29.16,WSW,251,5.0,7.0,3,0.00,,,0.00,69.0,meteohub,2013-05-29 01:02:00,
2013-05-28 19:07:00,80.2,-7.6,29.16,WSW,240,1.0,8.0,3,0.00,,,0.00,63.0,meteohub,2013-05-29 01:07:00,
2013-05-28 19:12:00,80.2,-7.6,29.16,WNW,288,3.0,8.0,3,0.00,,,0.00,60.0,meteohub,2013-05-29 01:12:00,
2013-05-28 19:17:00,80.2,-7.6,29.16,NNW,330,5.0,7.0,3,0.00,,,0.00,51.0,meteohub,2013-05-29 01:17:00,
2013-05-28 19:22:00,80.1,-1.7,29.16,NNW,335,3.0,8.0,4,0.00,,,0.00,40.0,meteohub,2013-05-29 01:22:00,
2013-05-28 19:27:00,79.9,-1.8,29.16,NW,320,2.0,8.0,4,0.00,,,0.00,35.0,meteohub,2013-05-29 01:27:00,
2013-05-28 19:32:00,79.5,-2.0,29.16,NNW,330,1.0,7.0,4,0.00,,,0.00,32.0,meteohub,2013-05-29 01:32:00,
2013-05-28 19:37:00,79.3,-2.2,29.16,NNW,347,0.0,6.0,4,0.00,,,0.00,26.0,meteohub,2013-05-29 01:37:00,
2013-05-28 19:42:00,79.2,-2.4,29.16,NNW,347,1.0,6.0,4,0.00,,,0.00,19.0,meteohub,2013-05-29 01:42:00,
2013-05-28 19:47:00,79.0,-8.5,29.16,NNW,347,0.0,6.0,3,0.00,,,0.00,14.0,meteohub,2013-05-29 01:47:00,
2013-05-28 19:52:00,78.8,-8.5,29.16,NNW,348,0.0,5.0,3,0.00,,,0.00,14.0,meteohub,2013-05-29 01:52:00,
2013-05-28 19:57:00,78.4,-8.9,29.16,NNW,348,0.0,5.0,3,0.00,,,0.00,11.0,meteohub,2013-05-29 01:57:00,
2013-05-28 20:02:00,78.3,-2.9,29.16,NNW,348,0.0,3.0,4,0.00,,,0.00,7.0,meteohub,2013-05-29 02:02:00,
2013-05-28 20:07:00,77.9,1.6,29.16,NNW,348,0.0,1.0,5,0.00,,,0.00,5.0,meteohub,2013-05-29 02:07:00,
2013-05-28 20:12:00,77.5,1.2,29.16,NNW,348,1.0,0.0,5,0.00,,,0.00,0.0,meteohub,2013-05-29 02:12:00,
2013-05-28 20:17:00,77.0,0.9,29.16,NNW,348,0.0,1.0,5,0.00,,,0.00,0.0,meteohub,2013-05-29 02:17:00,
2013-05-28 20:22:00,76.5,0.5,29.16,NNW,348,1.0,1.0,5,0.00,,,0.00,0.0,meteohub,2013-05-29 02:22:00,
2013-05-28 20:27:00,76.3,0.3,29.16,NNW,348,0.0,2.0,5,0.00,,,0.00,0.0,meteohub,2013-05-29 02:27:00,
2013-05-28 20:32:00,75.9,4.1,29.16,NNW,348,0.0,2.0,6,0.00,,,0.00,0.0,meteohub,2013-05-29 02:32:00,
2013-05-28 20:37:00,75.4,7.0,29.16,NNW,348,1.0,2.0,7,0.00,,,0.00,0.0,meteohub,2013-05-29 02:37:00,
2013-05-28 20:42:00,74.8,6.6,29.16,NNW,348,0.0,2.0,7,0.00,,,0.00,0.0,meteohub,2013-05-29 02:42:00,
2013-05-28 20:47:00,74.5,6.3,29.17,NNW,348,0.0,2.0,7,0.00,,,0.00,0.0,meteohub,2013-05-29 02:47:00,
2013-05-28 20:52:00,74.5,3.0,29.17,SW,236,7.0,7.0,6,0.00,,,0.00,0.0,meteohub,2013-05-29 02:52:00,
2013-05-28 20:57:00,74.5,6.3,29.18,West,263,3.0,9.0,7,0.00,,,0.00,0.0,meteohub,2013-05-29 02:57:00,
2013-05-28 21:02:00,75.0,6.8,29.18,WSW,257,9.0,9.0,7,0.00,,,0.00,0.0,meteohub,2013-05-29 03:02:00,
2013-05-28 21:07:00,75.6,7.2,29.18,NW,323,6.0,12.0,7,0.00,,,0.00,0.0,meteohub,2013-05-29 03:07:00,
2013-05-28 21:12:00,75.9,4.1,29.19,West,259,13.0,13.0,6,0.00,,,0.00,0.0,meteohub,2013-05-29 03:12:00,
2013-05-28 21:17:00,76.1,7.5,29.19,West,281,10.0,18.0,7,0.00,,,0.00,0.0,meteohub,2013-05-29 03:17:00,
2013-05-28 21:22:00,76.3,7.7,29.20,NW,321,6.0,18.0,7,0.00,,,0.00,0.0,meteohub,2013-05-29 03:22:00,
2013-05-28 21:27:00,75.9,7.3,29.20,NW,308,8.0,20.0,7,0.00,,,0.00,0.0,meteohub,2013-05-29 03:27:00,
2013-05-28 21:32:00,75.9,7.3,29.21,NW,319,7.0,20.0,7,0.00,,,0.00,0.0,meteohub,2013-05-29 03:32:00,
2013-05-28 21:37:00,75.7,7.3,29.21,NW,322,3.0,20.0,7,0.00,,,0.00,0.0,meteohub,2013-05-29 03:37:00,
2013-05-28 21:42:00,75.7,7.3,29.21,NNW,333,8.0,14.0,7,0.00,,,0.00,0.0,meteohub,2013-05-29 03:42:00,
2013-05-28 21:47:00,75.6,7.2,29.21,WNW,284,8.0,11.0,7,0.00,,,0.00,0.0,meteohub,2013-05-29 03:47:00,
2013-05-28 21:52:00,75.4,7.0,29.22,NW,324,4.0,13.0,7,0.00,,,0.00,0.0,meteohub,2013-05-29 03:52:00,
2013-05-28 21:57:00,75.4,7.0,29.22,NW,304,2.0,13.0,7,0.00,,,0.00,0.0,meteohub,2013-05-29 03:57:00,
2013-05-28 22:02:00,75.0,6.8,29.22,WNW,289,3.0,13.0,7,0.00,,,0.00,0.0,meteohub,2013-05-29 04:02:00,
2013-05-28 22:07:00,74.8,6.6,29.23,West,266,0.0,9.0,7,0.00,,,0.00,0.0,meteohub,2013-05-29 04:07:00,
2013-05-28 22:12:00,74.5,9.3,29.23,West,266,2.0,7.0,8,0.00,,,0.00,0.0,meteohub,2013-05-29 04:12:00,
2013-05-28 22:17:00,74.5,9.3,29.23,West,266,3.0,5.0,8,0.00,,,0.00,0.0,meteohub,2013-05-29 04:17:00,
2013-05-28 22:22:00,74.5,9.3,29.23,WSW,242,8.0,10.0,8,0.00,,,0.00,0.0,meteohub,2013-05-29 04:22:00,
2013-05-28 22:27:00,74.3,9.1,29.23,West,271,3.0,10.0,8,0.00,,,0.00,0.0,meteohub,2013-05-29 04:27:00,
2013-05-28 22:32:00,74.1,9.0,29.24,West,271,3.0,10.0,8,0.00,,,0.00,0.0,meteohub,2013-05-29 04:32:00,
2013-05-28 22:37:00,73.9,9.0,29.24,NW,306,6.0,10.0,8,0.00,,,0.00,0.0,meteohub,2013-05-29 04:37:00,
2013-05-28 22:42:00,73.9,9.0,29.24,NW,315,8.0,8.0,8,0.00,,,0.00,0.0,meteohub,2013-05-29 04:42:00,
2013-05-28 22:47:00,73.9,9.0,29.24,NW,313,3.0,12.0,8,0.00,,,0.00,0.0,meteohub,2013-05-29 04:47:00,
2013-05-28 22:52:00,73.9,9.0,29.25,West,264,7.0,15.0,8,0.00,,,0.00,0.0,meteohub,2013-05-29 04:52:00,
2013-05-28 22:57:00,73.8,8.8,29.25,WNW,288,4.0,15.0,8,0.00,,,0.00,0.0,meteohub,2013-05-29 04:57:00,
2013-05-28 23:02:00,73.8,8.8,29.25,West,281,3.0,16.0,8,0.00,,,0.00,0.0,meteohub,2013-05-29 05:02:00,
2013-05-28 23:07:00,73.4,8.4,29.25,WSW,244,3.0,16.0,8,0.00,,,0.00,0.0,meteohub,2013-05-29 05:07:00,
2013-05-28 23:12:00,73.2,8.4,29.26,WNW,299,3.0,16.0,8,0.00,,,0.00,0.0,meteohub,2013-05-29 05:12:00,
2013-05-28 23:17:00,73.2,8.4,29.26,NNW,329,6.0,12.0,8,0.00,,,0.00,0.0,meteohub,2013-05-29 05:17:00,
2013-05-28 23:22:00,73.0,8.2,29.26,West,261,2.0,12.0,8,0.00,,,0.00,0.0,meteohub,2013-05-29 05:22:00,
2013-05-28 23:27:00,72.7,7.9,29.26,West,263,3.0,11.0,8,0.00,,,0.00,0.0,meteohub,2013-05-29 05:27:00,
2013-05-28 23:32:00,72.1,7.5,29.26,West,263,3.0,11.0,8,0.00,,,0.00,0.0,meteohub,2013-05-29 05:32:00,
2013-05-28 23:37:00,72.0,7.3,29.26,NW,312,4.0,7.0,8,0.00,,,0.00,0.0,meteohub,2013-05-29 05:37:00,
2013-05-28 23:42:00,71.8,9.9,29.26,SW,236,2.0,7.0,9,0.00,,,0.00,0.0,meteohub,2013-05-29 05:42:00,
2013-05-28 23:47:00,71.6,7.2,29.25,West,271,1.0,9.0,8,0.00,,,0.00,0.0,meteohub,2013-05-29 05:47:00,
2013-05-28 23:52:00,71.4,9.7,29.25,NW,326,3.0,15.0,9,0.00,,,0.00,0.0,meteohub,2013-05-29 05:52:00,
2013-05-28 23:57:00,71.4,9.7,29.25,West,277,0.0,15.0,9,0.00,,,0.00,0.0,meteohub,2013-05-29 05:57:00,